• In Czech Republic
  • List of Countries
  • For 7 days
  • Water Temperature
  • Satellite Maps
  • Weather Map
  • Weather Widgets
  • user-avatar
    Login

    Hourly Weather Wien

    Today, 18 October, Wednesday

    Time Temperature Precipitation Wind Pressure Humidity
    00:00 +14°C° 0 mm 2 mps 746 mmHg 80%
    01:00 +13°C° 0 mm 2 mps 746 mmHg 81%
    02:00 +13°C° 0 mm 2 mps 746 mmHg 83%
    03:00 +13°C° 0 mm 2 mps 745 mmHg 85%
    04:00 +12°C° 0 mm 2 mps 745 mmHg 86%
    05:00 +12°C° 0 mm 2 mps 745 mmHg 87%
    06:00 +12°C° 0 mm 2 mps 744 mmHg 87%
    07:00 +12°C° 0 mm 2 mps 744 mmHg 88%
    08:00 +14°C° 0 mm 2 mps 744 mmHg 81%
    09:00 +16°C° 0 mm 2 mps 744 mmHg 73%
    10:00 +18°C° 0 mm 2 mps 744 mmHg 66%
    11:00 +19°C° 0 mm 2 mps 744 mmHg 61%
    12:00 +20°C° 0 mm 2 mps 743 mmHg 56%
    13:00 +21°C° 0 mm 2 mps 743 mmHg 52%
    14:00 +21°C° 0 mm 2 mps 743 mmHg 54%
    15:00 +21°C° 0 mm 1 mps 742 mmHg 56%
    16:00 +21°C° 0 mm 1 mps 742 mmHg 58%
    17:00 +19°C° 0 mm 1 mps 742 mmHg 63%
    18:00 +18°C° 0 mm 1 mps 742 mmHg 68%
    19:00 +15°C° 0 mm 1 mps 742 mmHg 72%
    20:00 +15°C° 0 mm 1 mps 742 mmHg 74%
    21:00 +14°C° 0 mm 1 mps 742 mmHg 76%
    22:00 +14°C° 0 mm 1 mps 742 mmHg 78%
    23:00 +13°C° 0 mm 1 mps 742 mmHg 79%

    Tomorrow, 19 October, Thursday

    Time Temperature Precipitation Wind Pressure Humidity
    00:00 +13°C° 0 mm 1 mps 742 mmHg 80%
    01:00 +13°C° 0 mm 1 mps 742 mmHg 81%
    02:00 +12°C° 0 mm 1 mps 742 mmHg 82%
    03:00 +12°C° 0 mm 1 mps 742 mmHg 83%
    04:00 +12°C° 0 mm 1 mps 742 mmHg 84%
    05:00 +12°C° 0 mm 1 mps 742 mmHg 84%
    06:00 +12°C° 0 mm 1 mps 742 mmHg 84%
    07:00 +12°C° 0 mm 1 mps 742 mmHg 84%
    08:00 +14°C° 0 mm 1 mps 743 mmHg 76%
    09:00 +16°C° 0 mm 1 mps 743 mmHg 67%
    10:00 +19°C° 0 mm 1 mps 743 mmHg 59%
    11:00 +20°C° 0 mm 1 mps 743 mmHg 56%
    12:00 +21°C° 0 mm 1 mps 742 mmHg 52%
    13:00 +22°C° 0 mm 1 mps 742 mmHg 49%
    14:00 +22°C° 0 mm 1 mps 742 mmHg 52%
    15:00 +21°C° 0 mm 1 mps 742 mmHg 55%
    16:00 +20°C° 0 mm 1 mps 742 mmHg 58%
    17:00 +19°C° 0 mm 1 mps 742 mmHg 62%
    18:00 +15°C° 0 mm 0 mps 742 mmHg 67%
    19:00 +14°C° 0 mm 0 mps 742 mmHg 72%
    20:00 +13°C° 0 mm 0 mps 743 mmHg 74%
    21:00 +13°C° 0 mm 0 mps 743 mmHg 76%
    22:00 +13°C° 0 mm 0 mps 743 mmHg 78%
    23:00 +12°C° 0 mm 0 mps 743 mmHg 80%

    Day after tomorrow, 20 October, Friday

    Time Temperature Precipitation Wind Pressure Humidity
    00:00 +12°C° 0 mm 0 mps 743 mmHg 81%
    01:00 +13°C° 0 mm 1 mps 743 mmHg 83%
    02:00 +12°C° 0 mm 1 mps 743 mmHg 84%
    03:00 +12°C° 0 mm 1 mps 743 mmHg 86%
    04:00 +10°C° 0 mm 0 mps 743 mmHg 87%
    05:00 +10°C° 0 mm 0 mps 743 mmHg 87%
    06:00 +10°C° 0 mm 0 mps 743 mmHg 88%
    07:00 +11°C° 0 mm 1 mps 743 mmHg 88%
    08:00 +13°C° 0 mm 1 mps 743 mmHg 80%
    09:00 +15°C° 0 mm 1 mps 743 mmHg 72%
    10:00 +18°C° 0 mm 1 mps 744 mmHg 65%
    11:00 +19°C° 0 mm 1 mps 743 mmHg 61%
    12:00 +19°C° 0 mm 2 mps 743 mmHg 57%
    13:00 +20°C° 0 mm 2 mps 743 mmHg 54%
    14:00 +19°C° 0 mm 2 mps 743 mmHg 56%
    15:00 +19°C° 0 mm 2 mps 743 mmHg 59%
    16:00 +20°C° 0 mm 1 mps 743 mmHg 61%
    17:00 +18°C° 0 mm 1 mps 743 mmHg 66%
    18:00 +16°C° 0 mm 1 mps 743 mmHg 71%
    19:00 +14°C° 0 mm 1 mps 744 mmHg 75%
    20:00 +14°C° 0 mm 1 mps 744 mmHg 77%
    21:00 +13°C° 0 mm 1 mps 744 mmHg 78%
    22:00 +13°C° 0 mm 1 mps 744 mmHg 80%
    23:00 +13°C° 0 mm 1 mps 744 mmHg 81%

    21 October, Saturday

    Time Temperature Precipitation Wind Pressure Humidity
    00:00 +12°C° 0 mm 1 mps 744 mmHg 82%
    01:00 +12°C° 0 mm 1 mps 744 mmHg 83%
    02:00 +12°C° 0 mm 1 mps 744 mmHg 84%
    03:00 +12°C° 0 mm 1 mps 745 mmHg 84%
    04:00 +11°C° 0 mm 1 mps 745 mmHg 85%
    05:00 +11°C° 0 mm 1 mps 745 mmHg 85%
    06:00 +11°C° 0 mm 1 mps 745 mmHg 85%
    07:00 +11°C° 0 mm 1 mps 745 mmHg 84%
    08:00 +12°C° 0 mm 0 mps 745 mmHg 77%
    09:00 +14°C° 0 mm 0 mps 745 mmHg 69%
    10:00 +16°C° 0 mm 0 mps 745 mmHg 61%
    11:00 +17°C° 0 mm 0 mps 745 mmHg 58%
    12:00 +20°C° 0 mm 1 mps 744 mmHg 55%
    13:00 +21°C° 0 mm 1 mps 744 mmHg 53%
    14:00 +20°C° 0 mm 1 mps 744 mmHg 56%
    15:00 +20°C° 0 mm 1 mps 744 mmHg 59%
    16:00 +19°C° 0 mm 1 mps 744 mmHg 62%
    17:00 +18°C° 0 mm 1 mps 744 mmHg 66%
    18:00 +16°C° 0 mm 1 mps 744 mmHg 69%
    19:00 +15°C° 0 mm 1 mps 744 mmHg 73%
    20:00 +15°C° 0 mm 1 mps 744 mmHg 74%
    21:00 +14°C° 0 mm 1 mps 744 mmHg 76%
    22:00 +14°C° 0 mm 1 mps 744 mmHg 77%
    23:00 +14°C° 0 mm 1 mps 744 mmHg 78%

    22 October, Sunday

    Time Temperature Precipitation Wind Pressure Humidity
    00:00 +13°C° 0 mm 1 mps 744 mmHg 78%
    01:00 +13°C° 0 mm 1 mps 744 mmHg 79%
    02:00 +13°C° 0 mm 1 mps 744 mmHg 80%
    03:00 +13°C° 0 mm 1 mps 744 mmHg 81%
    04:00 +12°C° 0 mm 1 mps 743 mmHg 82%
    05:00 +12°C° 0 mm 1 mps 743 mmHg 83%
    06:00 +12°C° 0 mm 1 mps 743 mmHg 84%
    07:00 +11°C° 0 mm 0 mps 743 mmHg 84%
    08:00 +14°C° 0 mm 1 mps 743 mmHg 80%
    09:00 +15°C° 0 mm 1 mps 743 mmHg 75%
    10:00 +16°C° 0 mm 1 mps 743 mmHg 70%
    11:00 +16°C° 0.2 mm 1 mps 743 mmHg 71%
    12:00 +16°C° 0.2 mm 2 mps 743 mmHg 71%
    13:00 +16°C° 0.2 mm 2 mps 743 mmHg 72%
    14:00 +14°C° 0.7 mm 3 mps 743 mmHg 75%
    15:00 +13°C° 0.7 mm 5 mps 743 mmHg 78%
    16:00 +11°C° 0.7 mm 6 mps 743 mmHg 81%
    17:00 +11°C° 0.4 mm 6 mps 743 mmHg 81%
    18:00 +10°C° 0.4 mm 6 mps 743 mmHg 81%
    19:00 +10°C° 0.4 mm 6 mps 744 mmHg 80%
    20:00 +10°C° 1 mm 6 mps 744 mmHg 81%
    21:00 +10°C° 1 mm 6 mps 745 mmHg 81%
    22:00 +9°C° 1 mm 6 mps 745 mmHg 82%
    23:00 +9°C° 1.2 mm 7 mps 745 mmHg 82%

    23 October, Monday

    Time Temperature Precipitation Wind Pressure Humidity
    00:00 +9°C° 1.2 mm 7 mps 745 mmHg 82%
    01:00 +9°C° 1.2 mm 7 mps 745 mmHg 82%
    02:00 +8°C° 0.4 mm 7 mps 746 mmHg 82%
    03:00 +8°C° 0.4 mm 7 mps 746 mmHg 82%
    04:00 +8°C° 0.4 mm 7 mps 746 mmHg 81%
    05:00 +8°C° 0.1 mm 7 mps 746 mmHg 81%
    06:00 +8°C° 0.1 mm 7 mps 746 mmHg 81%
    07:00 +8°C° 0.1 mm 6 mps 747 mmHg 80%
    08:00 +9°C° 0 mm 7 mps 747 mmHg 77%
    09:00 +9°C° 0 mm 7 mps 747 mmHg 74%
    10:00 +10°C° 0 mm 7 mps 748 mmHg 71%
    11:00 +10°C° 0 mm 7 mps 748 mmHg 67%
    12:00 +11°C° 0 mm 7 mps 748 mmHg 63%
    13:00 +12°C° 0 mm 7 mps 748 mmHg 58%
    14:00 +11°C° 0 mm 6 mps 748 mmHg 59%
    15:00 +12°C° 0 mm 5 mps 748 mmHg 60%
    16:00 +10°C° 0 mm 5 mps 748 mmHg 61%
    17:00 +11°C° 0 mm 4 mps 748 mmHg 63%
    18:00 +10°C° 0 mm 4 mps 749 mmHg 66%
    19:00 +8°C° 0 mm 4 mps 749 mmHg 68%
    20:00 +8°C° 0 mm 4 mps 750 mmHg 70%
    21:00 +7°C° 0 mm 4 mps 750 mmHg 72%
    22:00 +7°C° 0 mm 3 mps 750 mmHg 75%
    23:00 +7°C° 0 mm 3 mps 750 mmHg 76%
    Show more